When you browse on this site, cookies collect data to enhance your experience and personalize the content and advertising you see.
Visit our Privacy Policy to learn more. By continuing to use the site, you agree to this use of cookies and data.
  • In Hungary
  • List of Countries
  • For 7 days
  • Water Temperature
  • Satellite Maps
  • Weather Map
  • News
  • Weather Widgets
  • user-avatar
    Login

    Hourly Weather Manchester

    Today, 22 January, Tuesday

    Time Temperature Precipitation Wind Pressure Humidity
    00:00 +3°C° 0 mm 5 mps 747 mmHg 90%
    01:00 +2°C° 0.2 mm 5 mps 746 mmHg 86%
    02:00 +2°C° 0.2 mm 5 mps 746 mmHg 83%
    03:00 +2°C° 0.2 mm 5 mps 746 mmHg 80%
    04:00 +1°C° 0.1 mm 4 mps 746 mmHg 81%
    05:00 +1°C° 0.1 mm 4 mps 745 mmHg 81%
    06:00 +1°C° 0 mm 3 mps 745 mmHg 85%
    07:00 +1°C° 0 mm 3 mps 745 mmHg 84%
    08:00 +1°C° 0 mm 3 mps 745 mmHg 83%
    09:00 +1°C° 0 mm 3 mps 745 mmHg 83%
    10:00 +1°C° 0.2 mm 4 mps 745 mmHg 80%
    11:00 +3°C° 0.2 mm 4 mps 744 mmHg 78%
    12:00 +3°C° 0.2 mm 4 mps 744 mmHg 75%
    13:00 +3°C° 0.5 mm 4 mps 744 mmHg 78%
    14:00 +3°C° 0.5 mm 3 mps 743 mmHg 80%
    15:00 +2°C° 0.5 mm 3 mps 743 mmHg 83%
    16:00 +2°C° 0.2 mm 3 mps 743 mmHg 83%
    17:00 +2°C° 0.2 mm 2 mps 743 mmHg 84%
    18:00 +2°C° 0.2 mm 2 mps 742 mmHg 85%
    19:00 +1°C° 0 mm 2 mps 743 mmHg 85%
    20:00 +1°C° 0 mm 2 mps 743 mmHg 85%
    21:00 -1°C° 0 mm 2 mps 743 mmHg 85%
    22:00 -1°C° 0 mm 2 mps 743 mmHg 85%
    23:00 +1°C° 0 mm 1 mps 743 mmHg 85%

    Tomorrow, 23 January, Wednesday

    Time Temperature Precipitation Wind Pressure Humidity
    00:00 +1°C° 0 mm 1 mps 743 mmHg 85%
    01:00 +1°C° 0 mm 1 mps 743 mmHg 84%
    02:00 0°C° 0 mm 1 mps 744 mmHg 83%
    03:00 0°C° 0 mm 1 mps 744 mmHg 83%
    04:00 0°C° 0 mm 1 mps 745 mmHg 82%
    05:00 -2°C° 0 mm 2 mps 745 mmHg 82%
    06:00 -2°C° 0 mm 2 mps 746 mmHg 81%
    07:00 -2°C° 0 mm 2 mps 746 mmHg 80%
    08:00 0°C° 0 mm 1 mps 747 mmHg 80%
    09:00 0°C° 0 mm 1 mps 747 mmHg 79%
    10:00 +1°C° 0 mm 1 mps 748 mmHg 75%
    11:00 +1°C° 0 mm 2 mps 748 mmHg 72%
    12:00 +2°C° 0 mm 2 mps 749 mmHg 69%
    13:00 +3°C° 0 mm 1 mps 749 mmHg 71%
    14:00 +3°C° 0 mm 1 mps 749 mmHg 73%
    15:00 +3°C° 0 mm 1 mps 749 mmHg 75%
    16:00 +3°C° 0 mm 1 mps 750 mmHg 76%
    17:00 +2°C° 0 mm 1 mps 750 mmHg 77%
    18:00 0°C° 0 mm 0 mps 751 mmHg 78%
    19:00 0°C° 0 mm 0 mps 751 mmHg 78%
    20:00 +1°C° 0 mm 1 mps 751 mmHg 79%
    21:00 +1°C° 0 mm 1 mps 751 mmHg 80%
    22:00 +1°C° 0 mm 1 mps 752 mmHg 82%
    23:00 +1°C° 0 mm 1 mps 752 mmHg 85%

    Day after tomorrow, 24 January, Thursday

    Time Temperature Precipitation Wind Pressure Humidity
    00:00 +1°C° 0 mm 1 mps 752 mmHg 87%
    01:00 +1°C° 0 mm 1 mps 752 mmHg 89%
    02:00 +1°C° 0 mm 1 mps 752 mmHg 90%
    03:00 -1°C° 0 mm 2 mps 752 mmHg 91%
    04:00 +1°C° 0 mm 2 mps 752 mmHg 91%
    05:00 +2°C° 0 mm 1 mps 752 mmHg 92%
    06:00 +3°C° 0 mm 1 mps 752 mmHg 92%
    07:00 +2°C° 0 mm 2 mps 753 mmHg 92%
    08:00 +2°C° 0 mm 2 mps 753 mmHg 93%
    09:00 +2°C° 0 mm 2 mps 753 mmHg 94%
    10:00 +3°C° 0 mm 2 mps 753 mmHg 93%
    11:00 +4°C° 0 mm 2 mps 753 mmHg 92%
    12:00 +4°C° 0 mm 2 mps 753 mmHg 91%
    13:00 +5°C° 0 mm 2 mps 753 mmHg 93%
    14:00 +5°C° 0 mm 2 mps 753 mmHg 94%
    15:00 +5°C° 0 mm 2 mps 753 mmHg 96%
    16:00 +5°C° 0.2 mm 2 mps 753 mmHg 97%
    17:00 +5°C° 0.2 mm 2 mps 754 mmHg 97%
    18:00 +5°C° 0.2 mm 2 mps 754 mmHg 98%
    19:00 +4°C° 0.1 mm 2 mps 754 mmHg 98%
    20:00 +5°C° 0.1 mm 1 mps 754 mmHg 98%
    21:00 +5°C° 0.1 mm 1 mps 755 mmHg 98%
    22:00 +5°C° 0 mm 1 mps 755 mmHg 96%
    23:00 +4°C° 0 mm 1 mps 755 mmHg 95%

    25 January, Friday

    Time Temperature Precipitation Wind Pressure Humidity
    00:00 +3°C° 0 mm 1 mps 756 mmHg 93%
    01:00 +3°C° 0 mm 1 mps 756 mmHg 91%
    02:00 +3°C° 0 mm 1 mps 756 mmHg 88%
    03:00 +4°C° 0 mm 1 mps 756 mmHg 86%
    04:00 +4°C° 0 mm 1 mps 756 mmHg 84%
    05:00 +4°C° 0 mm 1 mps 756 mmHg 83%
    06:00 +4°C° 0 mm 1 mps 757 mmHg 81%
    07:00 +4°C° 0 mm 1 mps 757 mmHg 81%
    08:00 +4°C° 0 mm 1 mps 757 mmHg 80%
    09:00 +4°C° 0 mm 1 mps 757 mmHg 80%
    10:00 +3°C° 0.1 mm 2 mps 757 mmHg 81%
    11:00 +3°C° 0.1 mm 2 mps 757 mmHg 82%
    12:00 +3°C° 0.1 mm 2 mps 757 mmHg 83%
    13:00 +3°C° 0.1 mm 2 mps 757 mmHg 84%
    14:00 +3°C° 0.1 mm 2 mps 757 mmHg 85%
    15:00 +2°C° 0.1 mm 3 mps 757 mmHg 86%
    16:00 +2°C° 0 mm 3 mps 756 mmHg 88%
    17:00 +2°C° 0 mm 3 mps 756 mmHg 90%
    18:00 +2°C° 0 mm 3 mps 755 mmHg 91%
    19:00 +1°C° 0 mm 4 mps 755 mmHg 93%
    20:00 +3°C° 0 mm 4 mps 754 mmHg 94%
    21:00 +2°C° 0 mm 5 mps 753 mmHg 96%
    22:00 +2°C° 1.2 mm 5 mps 753 mmHg 95%
    23:00 +3°C° 1.2 mm 6 mps 752 mmHg 94%

    26 January, Saturday

    Time Temperature Precipitation Wind Pressure Humidity
    00:00 +3°C° 1.2 mm 7 mps 751 mmHg 93%
    01:00 +3°C° 1.1 mm 6 mps 751 mmHg 94%
    02:00 +4°C° 1.1 mm 6 mps 750 mmHg 95%
    03:00 +5°C° 1.1 mm 5 mps 750 mmHg 96%
    04:00 +3°C° 0 mm 5 mps 750 mmHg 92%
    05:00 +3°C° 0 mm 5 mps 750 mmHg 89%
    06:00 +3°C° 0 mm 4 mps 751 mmHg 85%
    07:00 +1°C° 0 mm 4 mps 751 mmHg 83%
    08:00 +1°C° 0 mm 4 mps 752 mmHg 81%
    09:00 +2°C° 0 mm 3 mps 752 mmHg 79%
    10:00 +3°C° 0 mm 4 mps 753 mmHg 75%
    11:00 +4°C° 0 mm 4 mps 753 mmHg 72%
    12:00 +4°C° 0 mm 4 mps 753 mmHg 68%
    13:00 +4°C° 0 mm 4 mps 753 mmHg 69%
    14:00 +4°C° 0 mm 4 mps 753 mmHg 70%
    15:00 +4°C° 0 mm 4 mps 753 mmHg 71%
    16:00 +4°C° 0 mm 3 mps 753 mmHg 74%
    17:00 +3°C° 0 mm 3 mps 753 mmHg 77%
    18:00 +2°C° 0 mm 3 mps 753 mmHg 80%
    19:00 +2°C° 0 mm 3 mps 753 mmHg 82%
    20:00 +2°C° 0 mm 3 mps 752 mmHg 84%
    21:00 +2°C° 0 mm 3 mps 752 mmHg 86%
    22:00 +2°C° 0.1 mm 3 mps 751 mmHg 86%
    23:00 +3°C° 0.1 mm 3 mps 751 mmHg 86%

    27 January, Sunday

    Time Temperature Precipitation Wind Pressure Humidity
    00:00 +3°C° 0.1 mm 4 mps 750 mmHg 87%
    01:00 +3°C° 0.5 mm 4 mps 749 mmHg 89%
    02:00 +3°C° 0.5 mm 4 mps 749 mmHg 91%
    03:00 +3°C° 0.5 mm 4 mps 748 mmHg 93%
    04:00 +3°C° 1.2 mm 3 mps 748 mmHg 91%
    05:00 +3°C° 1.2 mm 3 mps 748 mmHg 90%
    06:00 +3°C° 1.2 mm 3 mps 747 mmHg 89%
    07:00 +3°C° 0 mm 3 mps 748 mmHg 87%
    08:00 +2°C° 0 mm 3 mps 748 mmHg 85%
    09:00 +2°C° 0 mm 3 mps 749 mmHg 83%
    10:00 +3°C° 0 mm 3 mps 749 mmHg 78%
    11:00 +4°C° 0 mm 4 mps 749 mmHg 72%
    12:00 +3°C° 0 mm 5 mps 750 mmHg 67%
    13:00 +3°C° 0 mm 5 mps 750 mmHg 67%
    14:00 +4°C° 0 mm 4 mps 750 mmHg 67%
    15:00 +4°C° 0 mm 4 mps 750 mmHg 68%
    16:00 +3°C° 0 mm 4 mps 751 mmHg 70%
    17:00 +1°C° 0 mm 4 mps 751 mmHg 72%
    18:00 0°C° 0 mm 4 mps 752 mmHg 74%
    19:00 0°C° 0 mm 4 mps 753 mmHg 72%
    20:00 -1°C° 0 mm 4 mps 753 mmHg 70%
    21:00 -1°C° 0 mm 4 mps 754 mmHg 68%
    22:00 -1°C° 0 mm 4 mps 754 mmHg 68%
    23:00 -1°C° 0 mm 4 mps 754 mmHg 67%
    Show more